Dewpoint
62 55 50 43 46 43 34 30 22 26 22 20 23 23 21 26 31 24 23 24 24 32 50 51 44 46 43 44 45 49 55 46 46 42 40 55 69 69 71 70 71 71 71 72 72 72 73 74 74 74 74 74 74 74 74 74 73 73 73 72 72 73 73 72 72 72 72 72 72 72 72 72 72 71 71 71 71 71 71 71 70 69 70 69 69 70 71 70 70 70 69 69 69 69 69 69 68
55 47 42 44 40 35 32 29 24 24 24 19 18 24 22 22 23 22 23 26 26 43 49 50 50 51 52 52 53 51 51 59 59 57 63 68 69 69 70 71 70 70 71 72 73 73 74 73 74 73 74 74 74 74 74 74 73 73 73 73 73 73 72 72 71 72 72 72 72 72 72 72 72 72 71 71 71 71 71 70 70 70 70 70 71 71 71 70 70 69 68 67 68 69 69 68 67
57 43 32 36 34 37 35 27 23 23 22 18 19 21 23 20 20 22 25 33 37 49 49 51 51 53 49 49 45 49 48 62 62 63 65 67 66 67 70 70 70 71 71 72 73 73 74 73 73 73 74 74 74 74 74 74 74 73 73 73 73 72 72 72 72 72 72 72 72 72 72 72 72 71 71 71 71 71 70 70 69 69 69 70 71 71 70 70 69 69 69 67 68 69 69 67 67
50 47 35 30 28 29 28 26 25 22 22 19 19 21 22 21 22 22 22 41 46 49 49 50 48 53 48 47 52 56 56 58 62 64 64 66 66 70 70 70 71 71 70 71 72 73 73 73 74 74 74 74 74 73 74 73 73 73 73 73 72 72 71 71 72 72 72 72 72 72 72 72 72 71 71 71 71 71 71 70 70 70 70 70 70 71 70 70 70 69 68 67 69 69 69 67 68
37 46 39 30 26 28 26 28 24 22 19 21 17 20 30 23 23 22 22 44 48 47 50 52 49 51 58 57 60 49 53 60 64 66 66 68 70 70 70 70 70 70 71 71 72 73 73 73 73 74 73 73 73 73 73 73 73 73 72 72 71 71 71 71 72 72 72 71 72 72 72 72 71 71 71 71 71 70 70 70 70 70 70 70 71 70 70 70 70 69 69 69 69 69 68 68 68
33 34 38 29 25 29 22 24 24 21 21 22 21 20 23 21 23 20 23 49 50 51 51 51 47 49 56 59 60 58 62 57 63 64 66 68 70 70 70 70 69 70 71 71 72 72 72 73 72 73 73 73 73 73 73 73 73 72 72 71 71 71 71 71 72 72 71 71 71 71 71 71 71 71 71 70 70 70 70 69 69 70 70 70 69 70 70 70 70 69 68 70 69 68 68 68 68
32 24 27 21 25 27 22 22 21 20 20 22 20 21 21 19 20 21 20 44 49 51 53 51 55 53 51 57 59 64 64 64 63 65 68 69 70 69 69 69 69 71 71 72 72 72 72 73 73 73 73 72 72 72 72 72 72 72 72 71 71 71 71 71 72 72 72 71 71 71 71 71 71 70 70 70 70 70 70 70 70 70 70 70 70 70 69 69 68 68 69 69 68 67 67 68 69
39 24 27 19 21 24 22 21 20 21 20 21 21 21 21 23 23 24 43 33 41 48 52 53 52 49 50 58 53 62 65 67 67 69 70 69 69 69 69 68 69 70 71 71 71 72 73 73 73 73 73 72 72 72 72 71 71 72 72 71 71 71 71 72 72 72 71 72 71 71 70 70 70 70 70 70 69 70 70 70 70 70 70 70 69 69 68 69 69 69 68 68 67 67 67 68 68
29 28 33 19 20 22 19 18 18 21 20 20 19 24 38 29 27 46 51 50 51 52 51 52 53 44 48 56 57 62 65 67 68 70 69 69 68 69 69 69 69 70 70 71 71 71 72 72 72 72 72 72 72 72 72 71 71 71 71 71 71 72 72 71 72 72 71 71 70 70 70 70 69 69 70 70 70 71 70 70 70 69 70 69 69 68 68 69 69 69 68 67 67 67 68 69 69
27 23 21 22 20 20 18 17 19 18 19 19 18 18 18 18 29 44 50 49 49 52 53 55 54 45 53 54 57 60 64 67 68 68 68 69 69 68 68 69 69 70 70 70 70 71 71 72 72 72 72 72 72 71 71 71 71 71 71 71 71 71 71 71 71 71 71 70 70 70 69 69 69 69 70 70 70 70 70 70 70 70 70 69 69 69 68 69 69 68 68 67 67 67 68 68 68
25 23 25 21 22 18 18 17 18 19 19 20 18 18 18 17 24 50 50 51 54 51 54 54 51 54 55 55 56 63 65 67 67 67 69 69 69 68 68 69 69 70 70 70 69 69 70 70 71 71 72 72 72 72 72 71 71 71 71 71 71 71 71 71 71 71 71 70 70 70 69 69 69 69 70 70 70 70 70 70 70 69 69 69 69 69 69 69 69 69 69 68 68 69 69 69 68
21 22 18 19 19 18 17 18 17 17 18 16 14 26 41 31 49 51 52 50 53 53 51 53 51 55 54 54 54 61 65 66 67 67 68 69 69 69 69 69 70 70 70 69 69 69 69 69 69 70 71 71 71 71 72 72 72 71 71 71 71 71 71 71 71 71 71 70 70 70 69 69 69 69 70 70 70 70 70 70 70 69 68 69 69 69 69 69 70 69 69 69 69 69 69 69 70
23 20 18 17 17 17 23 15 15 32 15 11 12 19 48 48 47 51 51 51 53 51 50 54 56 53 50 52 57 61 63 65 67 68 69 69 69 69 69 69 70 70 69 69 68 68 68 68 69 69 69 70 70 70 71 71 71 71 71 71 70 70 70 70 71 71 70 69 69 69 69 69 69 69 69 70 70 70 70 70 70 70 69 69 68 68 69 70 70 70 70 70 69 70 70 70 69
21 20 19 18 12 13 11 13 11 9 8 10 24 26 48 49 50 51 52 50 52 49 53 55 55 56 52 51 53 57 62 66 67 69 69 70 70 69 69 69 69 68 68 68 67 68 68 68 68 68 68 68 68 69 69 70 71 71 70 70 70 70 70 70 70 70 70 69 69 69 69 69 69 69 69 69 69 70 70 70 70 70 70 69 68 67 69 70 70 70 70 70 70 70 69 69 68
23 22 20 14 13 13 10 11 8 7 8 17 38 46 50 53 52 52 50 49 51 55 56 55 55 46 45 49 48 57 63 66 68 69 69 69 69 69 69 69 68 68 67 67 67 67 67 67 68 68 68 67 67 67 67 69 69 70 69 69 69 69 69 69 69 69 69 69 68 69 69 69 69 69 69 70 68 69 70 70 70 70 70 70 68 67 67 68 70 70 70 70 70 70 69 68 68
24 18 19 17 13 11 11 9 10 7 8 16 46 50 51 52 55 51 52 53 52 56 54 52 55 51 51 50 55 60 65 67 68 68 68 68 67 64 68 68 68 68 67 67 66 66 67 67 67 67 67 67 67 67 67 67 69 69 69 69 69 69 68 69 68 68 68 69 69 69 69 71 70 68 68 69 68 69 70 70 69 70 70 69 68 67 67 67 69 70 70 70 70 70 70 68 69
19 22 18 15 13 11 9 9 9 8 9 24 46 49 50 51 54 55 55 55 53 54 54 55 55 58 55 59 61 64 66 68 68 67 67 67 65 64 66 68 68 67 67 67 67 67 67 67 67 67 67 67 67 67 67 67 68 70 70 69 68 68 68 68 68 69 69 68 70 70 70 67 67 68 69 69 69 70 69 69 69 69 69 70 69 68 67 67 69 69 70 70 69 69 70 69 70
19 19 16 16 13 10 14 9 8 10 9 25 41 52 50 49 52 53 52 52 52 51 52 54 59 60 62 63 65 66 67 67 68 67 66 65 66 66 67 67 67 66 67 67 67 67 67 67 67 66 66 66 66 67 67 68 68 69 67 68 69 69 69 70 70 70 70 68 70 68 68 69 66 67 68 71 69 71 69 69 69 69 69 70 69 68 67 67 67 68 68 69 69 69 69 67 67
17 18 17 12 12 12 14 12 11 9 8 36 47 51 50 48 53 53 50 50 50 49 49 51 57 60 62 63 65 66 66 66 67 66 65 65 65 66 66 66 66 67 66 67 67 66 66 67 68 68 68 68 67 67 67 68 66 66 67 68 69 70 69 69 67 68 66 67 67 67 67 67 67 67 68 68 70 70 70 68 69 69 69 70 69 68 67 67 66 67 67 68 68 68 67 66 65
16 15 12 12 13 12 11 12 11 11 33 47 48 49 49 50 51 53 50 50 48 48 48 48 54 57 60 62 64 64 63 65 66 66 65 66 66 65 65 65 66 66 66 66 67 67 67 68 68 68 68 68 67 67 66 66 66 66 66 66 66 66 66 66 65 65 65 65 65 65 66 67 65 65 70 70 70 67 67 70 69 69 69 69 69 69 68 67 66 67 67 68 67 67 66 65 64
13 14 11 10 10 15 10 11 11 10 46 46 46 47 48 50 52 51 49 47 46 48 48 47 50 58 60 62 63 63 63 64 65 65 65 65 65 66 66 66 66 66 67 67 68 67 67 68 68 68 68 67 67 67 66 65 66 66 65 65 65 65 65 64 64 64 64 64 65 65 65 66 64 64 64 65 65 65 65 65 66 66 67 67 68 66 67 67 66 66 66 67 66 66 65 64 64
13 12 12 12 11 10 10 11 11 10 33 44 45 46 47 51 51 51 47 42 41 45 45 47 52 59 60 61 62 63 62 63 64 64 64 64 65 65 65 66 66 66 66 66 66 67 67 67 67 67 68 67 67 66 66 68 66 65 65 65 65 64 64 64 64 64 64 64 64 66 66 63 63 63 63 64 64 64 64 64 64 65 66 66 67 65 65 65 65 65 66 66 65 65 65 64 64
10 10 10 12 11 10 11 9 10 14 24 39 45 46 48 49 50 51 48 44 43 48 47 47 52 60 61 62 62 61 61 62 63 63 64 64 64 65 65 66 66 66 66 65 65 66 66 66 66 66 66 66 66 66 67 66 65 66 67 66 64 63 63 63 63 63 64 64 64 66 63 63 63 63 63 63 63 63 63 64 64 65 65 66 67 65 65 65 65 65 65 65 64 65 65 65 64
10 9 10 10 10 9 10 15 12 12 28 35 44 45 48 49 44 50 49 49 50 51 47 50 57 60 61 60 61 60 60 60 61 62 63 64 64 65 65 65 65 64 65 65 66 66 66 65 65 65 66 66 66 66 65 65 65 65 67 68 65 67 64 63 63 64 64 64 66 66 65 62 62 62 62 63 63 63 63 63 64 65 65 66 66 66 65 64 64 64 64 63 65 65 65 64 65
10 9 11 10 10 8 8 7 7 15 18 23 42 45 47 49 45 49 48 48 52 51 51 55 58 59 59 59 59 58 58 58 59 60 60 61 63 64 64 63 63 64 65 65 66 66 65 66 65 65 66 65 65 65 65 64 65 66 66 65 66 68 62 63 64 64 64 66 66 66 65 62 62 61 62 62 63 63 62 62 63 64 65 65 65 65 65 65 65 65 65 65 63 64 63 64 65
10 9 12 9 8 7 8 7 7 12 13 25 39 42 47 47 48 46 46 49 54 52 54 55 56 57 57 58 58 57 56 57 58 59 59 60 62 63 63 63 63 64 65 65 65 65 66 66 65 65 65 65 65 65 64 64 64 64 65 65 66 66 63 64 64 64 63 64 64 64 65 61 61 62 62 62 62 62 62 62 62 63 64 64 65 64 64 64 64 64 64 65 65 63 64 63 66
9 9 8 8 8 7 6 7 18 10 13 29 33 36 45 41 43 40 44 53 55 52 54 54 55 55 56 57 57 56 56 57 58 58 58 60 61 62 62 62 63 63 64 64 64 65 66 65 64 64 65 67 65 64 64 64 65 64 65 65 66 64 65 65 64 63 63 63 64 64 64 64 62 63 63 62 61 61 61 62 62 63 61 62 64 65 65 64 64 64 64 64 63 63 64 64 65
11 9 8 5 5 10 26 22 19 12 6 13 30 34 38 26 40 38 40 55 54 52 53 53 54 54 56 56 56 56 56 57 57 57 58 60 61 61 62 63 63 63 63 63 64 64 64 64 64 64 65 66 65 65 66 64 64 64 65 64 64 65 65 65 65 65 65 64 64 64 65 65 65 63 63 61 60 60 61 61 62 62 61 62 63 65 65 65 65 65 65 64 64 65 65 65 65
11 7 6 9 10 29 35 29 20 13 5 27 32 27 31 24 34 34 43 55 54 52 53 53 53 54 55 56 56 56 56 58 57 56 57 59 60 61 62 62 63 62 62 64 63 63 63 63 64 64 64 65 64 64 64 63 64 65 65 64 65 66 65 64 64 64 63 64 64 65 65 65 65 62 62 63 64 60 60 60 61 63 64 64 64 65 65 64 64 64 64 64 64 63 64 64 65
13 13 8 17 17 27 35 40 34 22 37 23 16 21 20 21 35 43 54 55 53 52 52 53 53 55 55 55 56 57 58 59 58 59 59 60 60 61 61 62 63 63 63 62 62 62 63 64 64 64 64 63 63 63 63 63 63 64 64 64 66 65 64 64 64 63 65 64 65 65 64 65 63 63 62 61 61 60 61 62 62 63 64 64 64 64 63 64 63 63 63 63 64 63 62 63 64
10 13 16 13 23 25 35 41 40 38 42 32 20 17 22 31 36 44 50 55 52 51 52 53 54 55 55 56 57 58 59 59 59 60 60 60 61 62 62 62 63 63 63 62 62 62 63 62 64 64 64 63 64 63 63 63 63 65 64 64 64 63 63 63 62 62 63 63 63 64 65 65 64 64 63 61 61 61 62 63 64 64 64 64 64 64 64 64 63 63 64 63 62 62 62 63 64
21 22 22 22 25 26 29 39 40 39 42 41 29 29 31 39 41 47 48 54 53 52 53 54 54 55 57 57 58 59 59 60 60 60 60 61 61 62 62 62 63 62 62 62 63 62 62 63 64 63 63 63 62 63 62 63 63 63 63 65 63 63 63 62 62 62 62 62 62 62 64 66 64 64 63 61 61 61 63 63 64 65 65 65 64 64 64 63 63 63 64 63 62 62 63 63 63
24 25 25 25 29 31 31 36 39 41 42 42 33 34 41 42 45 48 52 53 53 53 53 54 56 57 58 58 58 58 59 59 60 60 60 61 61 62 62 62 61 62 63 62 62 61 62 63 63 62 62 62 62 62 62 62 61 62 62 63 62 62 62 62 62 62 62 62 61 61 63 65 64 64 63 62 61 62 62 64 63 64 65 64 62 61 61 62 62 63 62 64 63 62 63 62 62
24 26 30 30 34 35 34 37 39 40 41 40 41 41 41 44 48 50 52 51 51 50 51 52 53 57 57 57 57 57 57 57 58 60 60 61 61 62 62 64 62 62 62 61 61 61 61 61 62 63 62 62 62 62 61 61 62 62 62 62 64 61 61 61 62 63 62 61 61 62 63 65 65 64 63 62 61 61 63 63 62 63 64 63 61 60 60 61 61 61 60 62 63 62 62 61 60
24 27 29 30 33 35 37 37 39 40 40 39 40 41 42 45 49 50 49 48 48 48 51 52 50 52 55 55 55 56 56 56 57 58 59 60 60 60 60 61 61 62 61 61 61 61 61 62 63 62 61 61 61 61 62 60 60 60 60 61 61 61 61 61 62 62 61 61 61 62 63 65 65 63 63 63 62 64 63 62 61 62 63 62 61 59 60 62 62 60 61 61 62 62 61 60 61
23 27 30 32 34 35 35 38 39 40 39 39 39 40 42 46 47 49 49 49 48 48 50 52 51 51 54 54 55 55 55 56 58 58 58 59 60 60 60 61 61 61 61 61 61 61 61 61 60 60 60 60 60 60 60 60 60 61 60 60 61 62 61 63 61 61 61 61 62 62 63 63 65 64 63 63 63 64 62 61 60 62 62 61 59 59 59 60 60 60 61 61 60 61 61 61 60
26 30 32 34 35 35 37 38 38 39 39 38 39 40 41 44 47 48 49 49 50 51 51 51 52 54 54 54 54 54 54 54 55 57 57 58 58 59 59 59 60 60 60 60 60 61 61 61 61 60 60 60 60 59 59 59 58 58 58 59 59 58 60 61 62 60 61 61 62 62 62 62 63 64 63 62 62 64 62 60 60 62 62 61 59 59 60 60 60 60 61 61 59 57 59 60 60
30 32 34 34 36 36 37 37 38 40 38 37 39 38 39 40 44 49 50 50 50 51 51 51 51 52 54 54 53 54 55 55 53 55 56 57 58 57 58 58 60 59 59 59 60 60 60 60 60 60 59 59 59 59 59 59 56 57 57 57 57 57 60 61 60 60 60 62 62 61 62 62 61 62 64 62 62 61 61 60 60 62 61 61 61 60 60 63 62 60 59 60 59 57 58 59 60
29 33 34 35 35 36 37 38 39 39 38 37 38 37 38 39 41 44 48 50 51 52 52 52 52 50 53 54 54 54 55 55 54 54 55 57 57 57 59 59 59 59 59 58 59 60 60 61 60 60 60 59 59 60 60 59 57 59 58 58 57 58 57 59 59 60 61 61 60 61 61 60 61 61 62 64 62 60 60 59 59 59 60 62 62 60 61 59 57 57 59 58 56 58 59 59 60
29 30 33 33 34 31 33 37 38 39 38 37 38 37 38 39 40 41 43 47 50 52 52 53 53 52 53 54 54 54 54 54 53 54 54 56 57 57 58 58 57 58 58 59 59 60 61 62 60 60 60 59 58 59 63 61 61 60 59 58 58 58 58 61 58 58 59 59 60 59 59 60 61 61 61 62 63 61 60 60 59 59 60 62 61 60 60 59 58 59 59 59 54 53 53 56 60
22 27 31 32 27 31 35 36 37 37 37 37 36 36 37 38 39 40 41 44 46 50 51 53 54 54 54 54 54 54 53 53 53 54 55 55 56 56 56 57 57 57 57 58 58 59 60 60 61 60 60 59 59 60 60 60 60 58 57 57 58 58 57 56 56 57 56 58 61 57 58 58 60 61 61 61 63 61 60 59 59 58 59 61 60 58 58 59 58 57 56 55 53 53 53 54 56
24 28 28 28 32 36 36 37 34 33 31 32 36 33 35 38 38 39 40 41 42 45 49 50 51 52 53 53 53 54 54 54 54 54 55 56 57 57 57 57 57 57 57 58 58 59 59 59 60 60 60 60 60 59 60 61 59 58 56 56 56 54 55 54 56 57 57 55 57 57 55 57 57 59 60 60 60 62 59 59 58 58 59 60 60 58 57 56 56 56 55 55 54 53 54 51 52
23 22 27 33 37 36 37 35 28 27 28 35 36 32 32 37 38 39 40 40 41 42 44 46 49 51 52 53 53 54 54 54 55 55 56 56 57 57 57 57 57 57 57 58 58 58 58 59 59 59 60 60 60 60 60 62 59 57 56 56 56 56 56 55 55 55 56 56 54 55 54 55 57 58 59 59 59 61 59 58 57 58 59 58 61 56 57 56 55 55 56 53 54 55 52 52 52
22 26 28 36 36 35 35 34 35 33 36 34 33 36 34 34 37 40 40 39 40 41 43 43 45 48 50 52 53 54 55 54 55 55 55 56 56 56 56 57 57 57 58 58 58 58 58 58 59 60 60 60 60 60 60 60 60 58 56 56 58 57 55 56 56 56 56 57 55 54 54 55 56 57 58 58 58 59 58 56 56 56 57 57 59 56 57 55 57 58 56 55 55 54 51 52 51
27 30 28 35 35 34 31 34 33 33 33 29 31 35 34 34 38 40 40 39 40 40 42 43 44 46 48 50 52 53 54 55 55 55 55 55 55 56 56 56 57 57 58 57 57 58 58 58 59 60 59 59 60 59 59 59 60 60 58 57 56 57 57 57 57 57 57 56 55 54 54 55 55 56 57 57 57 58 60 57 56 56 56 58 60 56 55 56 56 56 55 54 53 53 53 52 52
31 31 31 30 30 31 29 30 30 29 28 26 31 35 33 33 39 39 40 39 40 40 42 43 44 45 46 46 47 48 49 50 50 52 53 53 55 55 56 55 56 56 56 58 58 57 57 57 59 59 59 60 60 59 59 59 59 60 58 58 57 57 57 57 56 56 56 55 55 54 54 55 55 56 56 57 57 57 59 58 56 56 57 58 59 55 55 55 55 54 54 53 53 54 54 52 52
29 27 26 27 28 29 31 29 29 27 24 26 32 35 34 31 37 37 38 39 40 42 41 43 45 45 45 46 46 47 47 47 48 48 49 51 53 54 55 55 55 56 56 56 57 57 57 58 58 57 58 59 59 59 59 59 59 59 58 58 57 57 57 57 56 56 56 56 55 55 54 54 55 55 56 57 56 57 57 58 56 55 56 61 59 55 55 55 54 53 53 55 53 53 54 54 53
28 27 25 25 26 25 26 26 28 23 22 27 32 34 34 30 34 39 41 42 44 44 41 43 43 44 44 45 46 46 46 47 47 48 48 49 51 52 53 53 54 54 55 56 56 57 57 57 57 57 58 58 59 59 59 59 59 59 59 58 58 58 58 57 56 56 56 55 55 55 55 54 55 55 55 55 56 56 58 57 57 56 58 58 55 55 55 54 54 53 54 54 53 52 53 54 51
26 26 26 23 18 21 18 25 22 23 24 29 32 35 34 35 38 41 44 44 42 43 43 43 43 44 44 44 45 46 46 47 47 47 48 48 49 50 52 52 52 53 53 54 54 55 56 57 57 57 57 57 57 58 58 59 58 59 58 58 58 59 58 58 58 58 57 56 55 55 55 54 55 55 55 55 55 55 57 55 54 55 57 56 55 54 54 53 53 53 54 53 53 53 53 51 50
27 26 24 21 14 11 14 19 19 23 27 29 31 34 33 37 41 44 44 43 42 44 43 43 44 44 44 44 45 45 45 46 46 47 47 47 48 49 50 51 51 52 53 53 53 54 55 56 56 56 56 57 57 58 58 58 58 59 59 58 58 58 58 58 58 58 57 57 56 56 55 55 55 55 55 55 56 55 56 56 55 54 55 55 54 53 53 52 53 53 53 52 52 52 51 50 51
27 28 27 25 22 19 14 16 15 19 23 27 32 30 30 34 35 41 43 42 44 42 43 43 44 44 44 44 44 45 45 45 46 46 47 47 48 48 48 50 50 51 52 52 53 53 53 54 56 56 57 57 57 57 58 58 58 58 58 58 58 58 58 58 57 58 58 57 57 57 56 56 55 56 56 56 57 55 55 55 54 53 53 54 54 53 52 52 54 54 52 52 52 51 51 52 50
26 30 30 26 24 25 21 21 22 23 26 27 31 30 35 36 42 44 44 41 40 42 41 44 43 44 44 44 44 45 45 45 46 46 46 47 47 47 48 48 49 50 51 51 51 53 53 53 54 56 57 57 57 58 57 57 58 58 58 58 58 59 59 59 58 59 58 58 58 58 57 57 57 56 56 56 56 55 54 54 54 53 53 53 53 51 51 51 52 51 52 51 52 52 49 49 49
23 27 25 27 30 28 22 21 24 24 23 25 31 33 36 37 38 40 40 39 40 40 41 41 42 42 42 42 43 44 44 45 45 45 46 46 47 47 47 47 47 49 50 50 50 51 52 52 53 54 56 57 57 57 57 57 57 58 57 57 58 58 58 58 57 58 58 58 58 58 58 58 58 57 57 57 56 55 55 54 54 52 52 53 52 51 50 50 50 51 50 50 50 51 50 48 49
27 26 27 31 32 29 24 17 17 23 23 25 33 31 30 31 30 40 39 39 39 39 40 41 41 41 41 41 42 43 44 45 45 45 46 46 46 47 46 46 47 47 48 49 49 50 51 52 52 54 54 54 55 56 56 57 57 57 57 57 58 58 58 58 58 58 58 58 58 58 58 58 58 58 58 57 57 56 55 57 54 52 52 52 51 50 49 50 50 50 49 49 49 50 50 51 50
28 25 30 28 19 21 25 21 16 13 20 26 30 30 28 29 29 36 36 37 37 38 39 39 40 40 41 41 42 43 43 44 44 44 45 46 45 46 46 46 46 46 48 48 48 49 50 50 52 52 53 54 54 55 55 56 56 56 57 57 57 57 58 58 59 59 59 58 58 58 58 58 58 58 59 59 57 56 55 55 54 52 50 51 50 49 50 50 49 49 49 49 49 48 47 48 50
29 31 30 34 29 25 25 21 22 25 21 25 28 31 28 31 30 35 37 37 38 38 38 39 40 41 41 41 41 42 43 43 43 44 45 45 45 45 45 45 45 46 46 47 48 48 49 49 50 51 52 52 52 53 54 54 55 55 56 57 57 57 58 58 58 59 59 58 59 58 58 58 58 59 59 59 58 57 57 55 54 52 50 50 49 49 49 49 48 48 49 48 48 46 46 47 48
26 27 27 28 29 31 29 27 26 23 22 17 21 23 28 30 35 36 37 38 39 39 39 39 40 41 41 42 42 42 42 42 43 44 45 45 45 45 45 45 45 45 46 47 47 47 48 49 49 50 51 51 51 52 53 54 54 55 55 55 56 56 56 57 57 57 57 58 58 58 58 58 59 58 59 58 58 58 57 56 55 53 50 49 49 49 49 48 48 48 48 47 47 46 45 46 48
27 27 25 27 26 24 21 21 27 26 24 24 17 14 23 29 40 38 38 39 39 40 40 39 40 40 40 40 41 41 42 42 43 44 44 44 44 44 44 45 44 44 44 44 46 47 47 47 48 48 49 50 50 51 52 53 53 54 53 54 54 55 55 55 55 56 56 56 57 57 57 58 57 58 58 58 58 58 58 56 55 53 52 49 49 48 48 48 48 47 47 46 46 46 46 46 48